www.pogodaiklimat.ru

ПОГОДА в Оксфорде, NC

  • Прогноз погоды в Оксфорде
  • Монитор погоды в Оксфорде
  • Климат в Оксфорде

АРХИВ ПОГОДЫ в Оксфорде

Время (UTC), дата Ветер
(напр.,м/с)
 
Видим.   Явления Облачность Т
(С)
Тd
(С)
f
(%)
Тe
(С)
Тes
(С)
Комфортность

P
(гПа)

Po
(гПа)
Тmin
(С)
Tmax
(С)
R
(мм)
SD
(см)
04:20 25.06 ЮЗ  6
{10} 
16 км    ясно  +25.3  +18.2  65  +30  +30  душно    991.9         
04:40 25.06 ЮЗ  16 км    ясно  +24.7  +18.2  67  +29  +29  душно    991.9         
05:00 25.06 З  16 км    ясно  +24.2  +18.0  68  +28  +28  душно    991.9         
05:20 25.06 ЮЗ  16 км    ясно  +23.8  +18.2  71  +28  +28  душно    991.9         
05:40 25.06   16 км    ясно  +23.5  +18.3  73  +28  +28  душно    991.2         
06:00 25.06 ЮЗ  16 км    ясно  +22.6  +18.6  78  +28  +28  душно    991.9         
06:20 25.06 ЮЗ  16 км    ясно  +22.2  +18.6  80  +27  +27  душно    991.6         
06:40 25.06 ЮЗ  16 км  слабый дождь  ясно  +22.1  +18.6  81  +27  +27  душно    991.9         
07:00 25.06 ЮЗ  16 км    ясно  +22.3  +18.6  80  +28  +28  душно    991.6         
07:20 25.06   16 км    ясно  +21.6  +18.6  83  +26  +26  душно    991.6         
07:40 25.06 ЮЗ  16 км    ясно  +21.5  +18.5  83  +26  +26  душно    991.9         
08:00 25.06 ЮЗ  16 км    ясно  +21.1  +18.5  85  +25  +25  комфорт    991.9         
08:20 25.06 З  16 км    ясно  +21.1  +18.5  85  +25  +25  комфорт    991.9         
08:40 25.06 ЮЗ  16 км    ясно  +20.8  +18.5  87  +25  +25  комфорт    992.2         
09:00 25.06 З  16 км    ясно  +20.7  +18.5  87  +26  +26  душно    992.6         
09:20 25.06 З  16 км    ясно  +20.5  +18.5  88  +25  +25  комфорт    992.9         
09:40 25.06 З  16 км    ясно  +20.6  +18.5  88  +25  +25  комфорт    992.9         
10:00 25.06 З  16 км    ясно  +21.0  +18.5  86  +26  +27  душно    993.2         
10:20 25.06 З  16 км    ясно  +21.0  +18.5  86  +26  +26  душно    993.6         
10:40 25.06 З  16 км    ясно  +21.0  +18.5  86  +26  +26  душно    993.9         
11:00 25.06 З  16 км    ясно  +21.5  +18.5  83  +26  +29  душно    994.2         
11:20 25.06 З  16 км    ясно  +22.8  +18.5  77  +29  +32  очень
душно 
  994.2         
11:40 25.06 СЗ  16 км    ясно  +23.6  +18.4  73  +28  +31  душно    994.6         
12:00 25.06 З  16 км    ясно  +24.0  +18.3  70  +28  +33  душно    994.9         
12:20 25.06 З  16 км    ясно  +24.4  +18.0  68  +29  +33  душно    994.9         
12:40 25.06 СЗ  16 км    ясно  +24.7  +18.1  67  +29  +35  душно    995.2         
13:00 25.06 СЗ  16 км    ясно  +25.3  +17.8  63  +30  +38  душно    995.2         
13:20 25.06 СЗ  4
{7} 
16 км    ясно  +25.8  +17.7  61  +30  +37  душно    994.9         
13:40 25.06 СЗ  16 км    ясно  +26.0  +17.4  59  +30  +39  душно    995.2         
14:00 25.06 СЗ  16 км    ясно  +26.3  +17.6  59  +31  +42  душно    995.6         
14:20 25.06 СЗ  16 км    ясно  +27.0  +17.8  57  +31  +43  душно    995.6         
14:40 25.06 СЗ  16 км    ясно  +27.0  +17.5  56  +31  +41  душно    995.6         
15:00 25.06 С  16 км    ясно  +27.0  +17.6  56  +31  +42  душно    995.6         
15:20 25.06 З  16 км    ясно  +27.3  +18.1  57  +32  +48  очень
душно 
  995.9         
15:40 25.06 СЗ  16 км    ясно  +27.6  +17.8  55  +32  +45  очень
душно 
  995.9         
16:00 25.06 СЗ  16 км    ясно  +28.0  +18.0  55  +33  +45  очень
душно 
  995.9         
16:20 25.06 СЗ  16 км    5/5 1320 м  +28.1  +17.7  53  +32  +39  душно    995.6         
16:40 25.06 СЗ  16 км    ясно  +27.6  +17.8  55  +32  +46  очень
душно 
  995.6         
17:00 25.06 СЗ  16 км    5/5 1410 м  +28.4  +17.5  52  +33  +38  очень
душно 
  995.6         
17:20 25.06 З  16 км    5/5 1410 м  +28.4  +17.8  53  +33  +40  очень
душно 
  995.6         
17:40 25.06 СЗ  16 км    5/5 1470 м  +28.6  +17.5  51  +33  +39  очень
душно 
  995.6         
18:00 25.06 З  16 км    ясно  +28.7  +17.7  51  +33  +48  очень
душно 
  995.6         
18:20 25.06 СЗ  4
{7} 
16 км    ясно  +29.1  +17.5  50  +33  +42  очень
душно 
  995.2         
18:40 25.06 З  16 км    ясно  +28.7  +18.0  52  +33  +48  очень
душно 
  995.6         
19:00 25.06 СЗ  16 км    ясно  +28.7  +17.9  52  +33  +43  очень
душно 
  995.2         
19:20 25.06 СЗ  16 км    ясно  +29.1  +18.2  52  +34  +43  очень
душно 
  995.2         
19:40 25.06 СЗ  16 км    5/5 1470 м  +28.0  +18.1  55  +33  +40  очень
душно 
  994.9         
20:00 25.06 СЗ  16 км    ясно  +29.3  +18.2  51  +34  +40  очень
душно 
  994.9         

 

Местоположение метеостанции Henderson-Oxford Airport: широта 36.3617 долгота -78.5292 высота над уровнем моря 161 м.

В архиве по умолчанию представлена погода в Оксфорде за последние 1-2 суток. Обновление информации о фактической погоде в базе происходит ежечасно! Архивные данные за месяц целиком и за предыдущие месяцы Вы можете получить, выбрав интересующий диапазон дат из раскрывающегося списка и нажав кнопку "Ввод!".

Внимание! Архив погоды МЕТАР в базе сайта хранится не более 60 дней. Нет смысла пытаться выбрать более раннюю дату.

Внимание! Время в таблицах - всемирное. Для получения местного времени необходимо прибавить поправку, которая в Оксфорде равна -5 ч.

Ветер - указаны скорость ветра в м/с и направление, откуда дует ветер: С - северный, СВ - северо-восточный, В - восточный, ЮВ - юго-восточный, Ю - южный, ЮЗ - юго-западный, З - западный, СЗ - северо-западный.
Видимость - горизонтальная дальность видимости в метрах или километрах. При видимости от 1 до 10 км при отсутствии осадков обычно наблюдается дымка, при ухудшении видимости до 1 км и менее - туман. В сухую погоду видимость может ухудшаться дымом, пылью или мглою.
Атмосферные явления - указаны явления, наблюдавшиеся в указанный момент времени.
Облачность - указаны через наклонную черту верхняя и нижняя облачность в баллах и высота нижней границы облаков в метрах. Внимание: облачность, как и прочие метеорологические величины в США измеряются автоматическими метеостанциями. Указанные значения в баллах носят условный характер и показывают процент времени, в течение которого, в среднем, лазерный луч высотомера отражался от облаков обратно.
T - Температура воздуха - температура, измеренная на высоте 2 м над землей.
Td - Температура точки росы - температура, при понижении до которой содержащийся в воздухе водяной пар достигнет насыщения.
f - Относительная влажность воздуха - влажноcть воздуха, измеренная на высоте 2 м над землей.
Te - Эффективная температура - температура, которую ощущает одетый по сезону человек в тени. Характеристика душности погоды. При расчете учитывается влияние влажности воздуха и скорости ветра на теплоощущения человека.
Tes - Эффективная температура на солнце - температура, которую ощущает человек, с поправкой на солнечный нагрев. Характеристика знойности погоды. Зависит от высоты солнца над горизонтом, облачности и скорости ветра. Ночью, в пасмурную погоду, а также при ветре 12 м/с и более поправка равна нулю.
P - Атмосферное давление - приведенное к уровню моря атмосферное давление.
Po - Атмосферное давление - измеренное на уровне метеостанции атмосферное давление.
Tmin - Минимальная температура - минимум температуры воздуха на высоте 2 м над землей.
Tmax - Максимальная температура - максимум температуры воздуха на высоте 2 м над землей.
R - Количество осадков - Количество выпавших осадков за 3 или 6 часов, мм.
SD - Снежный покров - Высота снежного покрова, см.